Change the Weather History Date:

Sunday, October 6, 2013

  Actual Average Record
Temperature  
Mean Temperature 78 °F -  
Max Temperature 84 °F - - ()
Min Temperature 72 °F - - ()
Cooling Degree Days 14    
Growing Degree Days 28 (Base 50)    
Moisture  
Dew Point 72 °F    
Average Humidity 83    
Maximum Humidity 94    
Minimum Humidity 68    
Precipitation  
Precipitation 0.51 in - - ()
Sea Level Pressure  
Sea Level Pressure 29.86 in    
Wind  
Wind Speed 9 mph (NW)    
Max Wind Speed 22 mph    
Max Gust Speed 31 mph    
Visibility 8 miles    
Events Fog , Rain    
T = Trace of Precipitation, MM = Missing Value Source: NWS Daily Summary

Daily Weather History Graph

Daily Weather History Graph

Search for Another Location

Airport or City:

Trip Planner

Search our weather history database for the weather conditions in past years. The results will help you decide how hot, cold, wet, or windy it might be!

Date:

Astronomy

Oct. 06, 2013 Rise Set
Actual Time 6:53 AM CDT 6:37 PM CDT
Civil Twilight 6:30 AM CDT 7:00 PM CDT
Nautical Twilight 6:02 AM CDT 7:28 PM CDT
Astronomical Twilight 5:34 AM CDT 7:55 PM CDT
Moon 8:28 AM CDT (10/6) 7:48 PM CDT (10/6)
Length of Visible Light 12h 30m
Length of Day
11h 43m
Waxing Crescent, 3% of the Moon is Illuminated
Oct 6
Waxing Crescent
Oct 11
First Quarter
Oct 18
Full
Oct 26
Last Quarter
Nov 3
New

Hourly Weather History & Observations

Time (CDT) Temp. Heat Index Dew Point Humidity Pressure Visibility Wind Dir Wind Speed Gust Speed Precip Events Conditions
12:51 AM 78.1 °F - 73.0 °F 84% 29.90 in 10.0 mi SE 9.2 mph - N/A   Overcast
1:51 AM 77.0 °F - 75.0 °F 94% 29.89 in 10.0 mi South 11.5 mph - 0.02 in   Overcast
2:30 AM 75.2 °F - 73.4 °F 94% 29.88 in 2.5 mi SSE 9.2 mph 18.4 mph 0.05 in Rain Rain
2:39 AM 77.0 °F - 73.4 °F 89% 29.88 in 6.0 mi SE 9.2 mph - 0.06 in Rain Light Rain
2:51 AM 77.0 °F - 75.0 °F 94% 29.87 in 10.0 mi SSE 8.1 mph - 0.06 in   Overcast
3:51 AM 78.1 °F - 75.0 °F 90% 29.85 in 10.0 mi SSE 9.2 mph - N/A   Mostly Cloudy
4:51 AM 78.1 °F - 75.0 °F 90% 29.85 in 10.0 mi SSE 6.9 mph - N/A   Partly Cloudy
5:51 AM 78.1 °F - 73.9 °F 87% 29.86 in 10.0 mi SE 6.9 mph - N/A   Scattered Clouds
6:51 AM 78.1 °F - 73.9 °F 87% 29.84 in 10.0 mi SE 5.8 mph - N/A   Clear
7:51 AM 78.1 °F - 75.0 °F 90% 29.85 in 10.0 mi SSE 4.6 mph - N/A   Clear
8:51 AM 80.1 °F 85.1 °F 75.0 °F 85% 29.85 in 10.0 mi SSE 5.8 mph - N/A   Clear
9:51 AM 81.0 °F 86.7 °F 75.0 °F 82% 29.86 in 10.0 mi SSE 5.8 mph - N/A   Mostly Cloudy
10:51 AM 82.0 °F 88.6 °F 75.0 °F 79% 29.86 in 10.0 mi South 5.8 mph - N/A   Clear
11:32 AM 80.6 °F 86.2 °F 75.2 °F 84% 29.86 in 1.2 mi West 5.8 mph - 0.00 in Rain Heavy Rain
11:40 AM 78.8 °F - 73.4 °F 83% 29.87 in 0.8 mi North 5.8 mph - 0.12 in Rain Rain
11:48 AM 77.0 °F - 71.6 °F 83% 29.86 in 0.2 mi Variable 3.5 mph 18.4 mph 0.22 in Rain Heavy Rain
11:51 AM 75.9 °F - 72.0 °F 87% 29.86 in 0.2 mi SE 5.8 mph 18.4 mph 0.43 in Fog , Rain Heavy Rain
11:54 AM 77.0 °F - 73.4 °F 89% 29.86 in 0.5 mi Calm Calm - 0.00 in Fog , Rain Light Rain
11:58 AM 77.0 °F - 73.4 °F 89% 29.86 in 3.0 mi Calm Calm - 0.00 in Rain Light Rain
12:51 PM 82.9 °F 90.8 °F 75.9 °F 79% 29.84 in 10.0 mi NW 4.6 mph - 0.00 in   Scattered Clouds
1:51 PM 82.9 °F 89.4 °F 73.9 °F 74% 29.82 in 10.0 mi NNW 12.7 mph 17.3 mph N/A   Scattered Clouds
2:51 PM 82.9 °F 88.8 °F 73.0 °F 72% 29.80 in 10.0 mi NNW 10.4 mph 16.1 mph N/A   Clear
3:51 PM 84.0 °F 91.9 °F 75.0 °F 74% 29.80 in 10.0 mi NNW 8.1 mph - N/A   Clear
4:51 PM 82.0 °F 88.6 °F 75.0 °F 79% 29.79 in 10.0 mi Calm Calm - N/A   Partly Cloudy
5:51 PM 82.0 °F 87.4 °F 73.0 °F 74% 29.81 in 10.0 mi NNW 13.8 mph 21.9 mph N/A   Partly Cloudy
6:51 PM 78.1 °F - 72.0 °F 81% 29.82 in 10.0 mi NW 12.7 mph 21.9 mph N/A   Clear
7:51 PM 75.9 °F - 71.1 °F 85% 29.83 in 10.0 mi NW 15.0 mph 25.3 mph N/A   Clear
8:36 PM 75.2 °F - 69.8 °F 83% 29.87 in 10.0 mi NNW 19.6 mph 27.6 mph N/A   Mostly Cloudy
8:44 PM 75.2 °F - 69.8 °F 83% 29.87 in 10.0 mi NW 21.9 mph 29.9 mph N/A   Overcast
8:51 PM 75.0 °F - 69.1 °F 82% 29.87 in 10.0 mi NNW 21.9 mph 29.9 mph N/A   Overcast
9:51 PM 73.9 °F - 68.0 °F 82% 29.91 in 10.0 mi NNW 17.3 mph 31.1 mph N/A   Overcast
10:33 PM 73.4 °F - 66.2 °F 78% 29.90 in 10.0 mi NNW 16.1 mph - N/A   Scattered Clouds
10:51 PM 73.0 °F - 66.0 °F 79% 29.91 in 10.0 mi NW 18.4 mph 26.5 mph N/A   Scattered Clouds
11:07 PM 73.4 °F - 64.4 °F 73% 29.91 in 10.0 mi NNW 16.1 mph 26.5 mph N/A   Mostly Cloudy
11:51 PM 72.0 °F - 61.0 °F 68% 29.91 in 10.0 mi NNW 20.7 mph 29.9 mph N/A   Scattered Clouds